KR8N Weather Reports


time (UTC)temp
F
wind
direction
speed
knots
gust
knots
rain 1hr
in
rain 24hr
in
rain mn
in
humidity
%
barometer
mb
20260502183437 48 303 1.7 3.5 0.00 0.00 0.00 47 1018.0
20260502182932 48 61 0.0 0.0 0.00 0.00 0.00 49 1017.8
20260502182428 48 159 1.7 2.6 0.00 0.00 0.00 48 1017.9
20260502181924 49 22 1.7 1.7 0.00 0.00 0.00 51 1018.3
20260502181423 51 95 4.3 5.2 0.00 0.00 0.00 44 1018.0
20260502180921 51 90 0.9 0.9 0.00 0.00 0.00 44 1017.9
20260502180418 49 321 2.6 2.6 0.00 0.00 0.00 45 1017.7
20260502170336 49 271 3.5 3.5 0.00 0.00 0.00 47 1018.2
20260502164324 50 112 1.7 2.6 0.00 0.00 0.00 47 1018.4
20260502163820 50 315 3.5 3.5 0.00 0.00 0.00 50 1018.5
20260502163316 50 357 2.6 2.6 0.00 0.00 0.00 46 1018.5
20260502162814 48 240 3.5 3.5 0.00 0.00 0.00 47 1018.5
20260502162310 47 284 4.3 5.2 0.00 0.00 0.00 52 1018.7
20260502161808 47 276 4.3 5.2 0.00 0.00 0.00 52 1018.7
20260502161303 47 289 4.3 6.1 0.00 0.00 0.00 54 1018.8
20260502160801 47 347 4.3 5.2 0.00 0.00 0.00 50 1018.6
20260502160300 47 281 1.7 1.7 0.00 0.00 0.00 52 1018.7
20260502152235 51 82 2.6 3.5 0.00 0.00 0.00 53 1018.7
20260502151732 50 63 1.7 2.6 0.00 0.00 0.00 50 1018.8
20260502151229 50 47 0.9 1.7 0.00 0.00 0.00 48 1019.0
20260502150727 49 257 1.7 1.7 0.00 0.00 0.00 48 1018.9
20260502150224 49 10 1.7 2.6 0.00 0.00 0.00 55 1018.6
20260502130612 44 295 1.7 1.7 0.00 0.00 0.00 71 1018.7
20260502130110 43 36 0.9 0.9 0.00 0.00 0.00 73 1018.8
20260502123555 42 36 0.9 0.9 0.00 0.00 0.00 77 1018.4
20260502123052 43 68 0.0 0.0 0.00 0.00 0.00 78 1018.6
20260502122548 42 63 0.9 0.9 0.00 0.00 0.00 79 1018.7
20260502122045 42 68 0.9 0.9 0.00 0.00 0.00 80 1018.6
20260502121543 42 12 0.9 1.7 0.00 0.00 0.00 80 1018.4
20260502121040 41 88 0.0 0.0 0.00 0.00 0.00 84 1018.4
20260502120536 40 88 0.0 0.0 0.00 0.00 0.00 86 1018.4
20260502115531 39 88 0.0 0.0 0.00 0.00 0.00 89 1018.4
20260502115027 39 88 0.0 0.0 0.00 0.00 0.00 92 1018.7
20260502114524 38 88 0.0 0.0 0.00 0.00 0.00 95 1018.7
20260502114021 38 88 0.0 0.0 0.00 0.00 0.00 95 1018.8
20260502113518 38 88 0.0 0.0 0.00 0.00 0.00 96 1018.6
20260502113017 37 88 0.0 0.0 0.00 0.00 0.00 96 1018.2
20260502112514 37 88 0.0 0.0 0.00 0.00 0.00 96 1018.4
20260502112011 37 88 0.0 0.0 0.00 0.00 0.00 95 1018.3
20260502111509 36 88 0.0 0.0 0.00 0.00 0.00 95 1018.2
20260502111006 36 88 0.0 0.0 0.00 0.00 0.00 95 1018.0
20260502110503 36 88 0.0 0.0 0.00 0.00 0.00 95 1018.3
20260502110001 36 88 0.0 0.0 0.00 0.00 0.00 95 1018.2
20260502105458 35 88 0.0 0.0 0.00 0.00 0.00 95 1018.2
20260502104955 35 88 0.0 0.0 0.00 0.00 0.00 95 1018.3
20260502104453 35 88 0.0 0.0 0.00 0.00 0.00 95 1018.0
20260502103950 35 88 0.0 0.0 0.00 0.00 0.00 95 1018.3
20260502103447 35 88 0.0 0.0 0.00 0.00 0.00 95 1018.3
20260502102944 35 88 0.0 0.0 0.00 0.00 0.00 95 1018.4
20260502102441 35 88 0.0 0.0 0.00 0.00 0.00 95 1018.4
20260502101938 35 88 0.0 0.0 0.00 0.00 0.00 95 1018.5
20260502101436 35 88 0.0 0.0 0.00 0.00 0.00 94 1018.2
20260502100934 34 88 0.0 0.0 0.00 0.00 0.00 94 1018.3
20260502100433 34 88 0.0 0.0 0.00 0.00 0.00 94 1018.4
20260502091408 36 88 0.0 0.0 0.00 0.00 0.00 93 1018.6
20260502090905 35 88 0.0 0.0 0.00 0.00 0.00 92 1018.6
20260502090401 35 88 0.0 0.0 0.00 0.00 0.00 92 1018.8
20260502071256 38 88 0.0 0.0 0.00 0.00 0.00 84 1018.5
20260502070755 39 88 0.0 0.0 0.00 0.00 0.00 82 1018.4
20260502070252 39 88 0.0 0.0 0.00 0.00 0.00 82 1018.5
20260502065750 38 88 0.0 0.0 0.00 0.00 0.00 83 1018.5
20260502065248 38 88 0.0 0.0 0.00 0.00 0.00 82 1018.5
20260502064746 39 88 0.0 0.0 0.00 0.00 0.00 81 1018.6
20260502064244 39 88 0.0 0.0 0.00 0.00 0.00 80 1018.5
20260502063741 39 88 0.0 0.0 0.00 0.00 0.00 78 1018.5
20260502063239 39 88 0.0 0.0 0.00 0.00 0.00 78 1018.6
20260502062735 39 94 0.0 0.0 0.00 0.00 0.00 79 1018.6
20260502062233 39 89 0.0 0.0 0.00 0.00 0.00 79 1018.7
20260502061732 39 97 0.0 0.0 0.00 0.00 0.00 79 1018.9
20260502061229 39 97 0.0 0.0 0.00 0.00 0.00 79 1018.8
20260502060724 40 97 0.0 0.0 0.00 0.00 0.00 79 1018.6
20260502060220 40 97 0.0 0.0 0.00 0.00 0.00 79 1018.6
20260502055718 40 97 0.0 0.0 0.00 0.00 0.00 77 1018.6
20260502055216 41 102 0.0 0.0 0.00 0.00 0.00 75 1018.7
20260502054715 41 109 0.0 0.0 0.00 0.00 0.00 73 1018.8
20260502054212 41 109 0.0 0.0 0.00 0.00 0.00 74 1018.8
20260502053709 41 110 0.0 0.0 0.00 0.00 0.00 74 1018.6
20260502053206 42 110 0.0 0.0 0.00 0.00 0.00 74 1018.9
20260502052704 42 110 0.0 0.0 0.00 0.00 0.00 74 1018.6
20260502052202 42 51 0.0 0.0 0.00 0.00 0.00 73 1018.7
20260502051700 42 50 0.0 0.0 0.00 0.00 0.00 73 1018.8
20260502051158 43 50 0.0 0.0 0.00 0.00 0.00 71 1018.7
20260502050654 43 49 0.0 0.0 0.00 0.00 0.00 70 1018.8
20260502050150 44 64 0.0 0.0 0.00 0.00 0.00 70 1018.8
20260502045647 44 57 0.0 0.0 0.00 0.00 0.00 69 1018.8
20260502045145 44 68 0.0 0.0 0.00 0.00 0.00 68 1019.0
20260502044641 44 42 0.0 0.0 0.00 0.00 0.00 68 1018.9
20260502044137 45 54 0.0 0.0 0.00 0.00 0.00 68 1019.0
20260502043636 45 46 0.0 0.9 0.00 0.00 0.00 67 1019.1
20260502043133 45 93 0.9 1.7 0.00 0.00 0.00 68 1018.9
20260502042632 45 275 2.6 2.6 0.00 0.00 0.00 67 1019.1
20260502042130 45 14 0.9 0.9 0.00 0.00 0.00 67 1019.1
20260502041627 45 8 1.7 1.7 0.00 0.00 0.00 67 1019.1
20260502041124 45 97 1.7 3.5 0.00 0.00 0.00 69 1018.9
20260502040621 45 99 0.0 0.0 0.00 0.00 0.00 71 1019.1
20260502040119 46 63 1.7 1.7 0.00 0.00 0.00 71 1019.1
20260502035614 46 212 1.7 1.7 0.00 0.00 0.00 70 1019.1
20260502035112 46 10 1.7 1.7 0.00 0.00 0.00 69 1018.7
20260502034609 46 23 0.9 0.9 0.00 0.00 0.00 71 1018.8
20260502034108 46 59 0.9 0.9 0.00 0.00 0.00 71 1018.7
20260502033605 46 54 1.7 1.7 0.00 0.00 0.00 72 1018.8
20260502033103 46 88 0.9 0.9 0.00 0.00 0.00 73 1018.7
20260502032558 47 54 2.6 3.5 0.00 0.00 0.00 73 1018.8
20260502032055 47 33 2.6 2.6 0.00 0.00 0.00 74 1018.8
20260502031553 47 326 1.7 1.7 0.00 0.00 0.00 75 1018.8
20260502031050 47 0 1.7 1.7 0.00 0.00 0.00 75 1018.8
20260502030549 47 323 0.9 1.7 0.00 0.00 0.00 74 1018.8
20260502030046 47 204 1.7 1.7 0.00 0.00 0.00 74 1018.8
20260502025543 47 115 1.7 2.6 0.00 0.00 0.00 74 1018.7
20260502025042 47 278 4.3 6.1 0.00 0.00 0.00 73 1018.8
20260502024538 48 0 0.9 0.9 0.00 0.00 0.00 74 1018.6
20260502024037 48 82 0.0 0.0 0.00 0.00 0.00 73 1018.6
20260502023534 48 316 1.7 2.6 0.00 0.00 0.00 72 1018.5
20260502023031 48 61 0.0 0.0 0.00 0.00 0.00 72 1018.4
20260502022528 48 52 0.9 0.9 0.00 0.00 0.00 72 1018.3
20260502022026 48 65 0.9 0.9 0.00 0.00 0.00 71 1018.4
20260502021523 48 62 0.0 0.0 0.00 0.00 0.00 72 1018.4
20260502021019 48 73 0.0 0.0 0.00 0.00 0.00 71 1018.3
20260502020517 48 63 0.0 0.0 0.00 0.00 0.00 70 1018.3
20260502020014 48 49 0.9 0.9 0.00 0.00 0.00 70 1018.2
20260502015512 48 104 0.9 0.9 0.00 0.00 0.00 70 1018.0
20260502015008 48 138 0.9 0.9 0.00 0.00 0.00 69 1018.0
20260502014505 48 68 0.0 0.0 0.00 0.00 0.00 69 1017.8
20260502014001 48 54 0.9 0.9 0.00 0.00 0.00 69 1017.8
20260502013457 48 60 0.0 0.0 0.00 0.00 0.00 68 1017.6
20260502012954 48 65 0.0 0.0 0.00 0.00 0.00 67 1017.7
20260502012451 48 93 0.9 1.7 0.00 0.00 0.00 68 1017.6
20260502011949 48 49 1.7 2.6 0.00 0.00 0.00 68 1017.5
20260502011444 48 91 0.9 0.9 0.00 0.00 0.00 70 1017.5
20260502010942 48 255 1.7 1.7 0.00 0.00 0.00 68 1017.6
20260502010438 48 24 0.9 1.7 0.00 0.00 0.00 68 1017.3
20260502005935 48 25 1.7 1.7 0.00 0.00 0.00 68 1017.4
20260502005433 49 68 0.9 0.9 0.00 0.00 0.00 68 1017.3
20260502004931 49 49 1.7 1.7 0.00 0.00 0.00 67 1017.2
20260502004426 49 108 0.0 0.0 0.00 0.00 0.00 67 1017.1
20260502003924 49 24 0.0 0.9 0.00 0.00 0.00 67 1017.1
20260502003421 50 106 0.9 1.7 0.00 0.00 0.00 67 1016.9
20260502002917 50 67 3.5 6.1 0.00 0.00 0.00 67 1016.8
20260502002415 50 79 0.0 0.0 0.00 0.00 0.00 67 1016.7
20260502001912 50 15 0.9 0.9 0.00 0.00 0.00 68 1016.8
20260502001409 51 21 1.7 1.7 0.00 0.00 0.00 67 1016.6
20260502000907 51 65 1.7 2.6 0.00 0.00 0.00 66 1016.1
20260502000405 51 46 1.7 1.7 0.00 0.00 0.00 68 1016.1
20260501235900 51 58 0.0 0.0 0.00 0.00 0.00 69 1016.3
20260501235356 51 17 2.6 2.6 0.00 0.00 0.00 68 1016.0
20260501234852 51 59 0.9 0.9 0.00 0.00 0.00 68 1015.7
20260501234349 51 51 0.0 0.0 0.00 0.00 0.00 68 1015.8
20260501233847 52 352 4.3 5.2 0.00 0.00 0.00 68 1015.3
20260501233344 52 306 1.7 2.6 0.00 0.00 0.00 68 1015.5
20260501232840 52 349 3.5 3.5 0.00 0.00 0.00 67 1015.3
20260501232337 53 243 1.7 1.7 0.00 0.00 0.00 68 1015.3
20260501231835 53 56 0.9 0.9 0.00 0.00 0.00 66 1015.3
20260501231332 53 89 1.7 1.7 0.00 0.00 0.00 67 1015.3
20260501230831 53 276 2.6 2.6 0.00 0.00 0.00 66 1015.3
20260501230330 53 140 0.9 1.7 0.00 0.00 0.00 66 1015.4
20260501225826 53 263 0.9 1.7 0.00 0.00 0.00 65 1015.5
20260501225324 53 172 1.7 1.7 0.00 0.00 0.00 64 1015.1
20260501224820 54 308 2.6 3.5 0.00 0.00 0.00 63 1015.3
20260501224318 55 67 0.0 0.0 0.00 0.00 0.00 62 1015.3
20260501223814 55 286 3.5 3.5 0.00 0.00 0.00 61 1015.4
20260501223310 55 289 3.5 3.5 0.00 0.00 0.00 61 1015.2
20260501222806 55 344 3.5 3.5 0.00 0.00 0.00 60 1015.1
20260501222305 55 315 3.5 6.1 0.00 0.00 0.00 60 1015.0
20260501221800 55 49 1.7 1.7 0.00 0.00 0.00 62 1014.7
20260501221257 55 92 2.6 2.6 0.00 0.00 0.00 57 1014.6
20260501220755 56 272 3.5 3.5 0.00 0.00 0.00 55 1014.9
20260501220252 57 244 3.5 7.0 0.00 0.00 0.00 53 1014.6
20260501215749 58 7 1.7 1.7 0.00 0.00 0.00 53 1014.6
20260501215244 59 4 1.7 1.7 0.00 0.00 0.00 51 1014.5
20260501214739 60 262 2.6 2.6 0.00 0.00 0.00 45 1014.4
20260501214236 60 298 2.6 2.6 0.00 0.00 0.00 39 1014.4
20260501213732 60 289 1.7 2.6 0.00 0.00 0.00 39 1014.3
20260501213229 60 283 7.8 8.7 0.00 0.00 0.00 37 1014.2
20260501212725 61 4 3.5 5.2 0.00 0.00 0.00 38 1014.0
20260501212221 61 314 2.6 2.6 0.00 0.00 0.00 36 1013.9
20260501211718 62 273 4.3 6.1 0.00 0.00 0.00 36 1013.9
20260501211216 63 285 4.3 6.1 0.00 0.00 0.00 34 1014.1
20260501210713 63 279 7.8 7.8 0.00 0.00 0.00 34 1013.8
20260501210209 64 211 7.0 8.7 0.00 0.00 0.00 33 1013.8
20260501205706 62 117 0.9 1.7 0.00 0.00 0.00 35 1014.1
20260501205203 62 285 4.3 6.1 0.00 0.00 0.00 33 1014.0
20260501204700 63 289 9.6 13.0 0.00 0.00 0.00 32 1014.0
20260501204155 64 286 3.5 7.0 0.00 0.00 0.00 33 1014.0
20260501203652 64 272 3.5 3.5 0.00 0.00 0.00 33 1014.1
20260501203150 64 242 7.8 9.6 0.00 0.00 0.00 31 1013.9
20260501202647 65 243 6.1 9.6 0.00 0.00 0.00 32 1014.1
20260501202144 64 271 6.1 7.0 0.00 0.00 0.00 31 1014.0
20260501201641 65 277 3.5 3.5 0.00 0.00 0.00 31 1014.0
20260501201137 66 172 1.7 3.5 0.00 0.00 0.00 34 1014.0
20260501200634 65 275 5.2 6.1 0.00 0.00 0.00 29 1013.8
20260501200132 65 303 8.7 9.6 0.00 0.00 0.00 28 1013.9
20260501195629 63 47 0.9 0.9 0.00 0.00 0.00 33 1014.0
20260501195124 63 96 0.9 0.9 0.00 0.00 0.00 32 1014.0
20260501194620 64 255 2.6 3.5 0.00 0.00 0.00 27 1014.1
20260501194116 65 286 3.5 6.1 0.00 0.00 0.00 30 1013.9
20260501193614 64 216 4.3 7.0 0.00 0.00 0.00 29 1013.9
20260501193112 63 290 4.3 5.2 0.00 0.00 0.00 28 1014.2
20260501192608 65 299 5.2 7.0 0.00 0.00 0.00 28 1014.2
20260501192106 66 270 3.5 3.5 0.00 0.00 0.00 27 1014.3
20260501191603 64 302 1.7 1.7 0.00 0.00 0.00 26 1014.3
20260501191100 65 307 3.5 6.1 0.00 0.00 0.00 25 1014.3
20260501190556 65 283 5.2 6.1 0.00 0.00 0.00 27 1014.4
20260501190051 66 4 2.6 3.5 0.00 0.00 0.00 28 1014.5
20260501185548 66 284 5.2 8.7 0.00 0.00 0.00 26 1014.6
20260501185044 66 174 2.6 3.5 0.00 0.00 0.00 26 1014.3
20260501184540 67 118 1.7 2.6 0.00 0.00 0.00 28 1014.5
20260501184040 66 122 1.7 1.7 0.00 0.00 0.00 29 1014.5